Location: Bagnolo San Vito
(45.0833°N, 10.8833°E)
Time: 08:44:42
(UTC+00:00)

H-2A R/B - Pass Details

Date: 03 March 2021
Orbit: 732 x 837 km, 98.2° (Epoch: 18 April)

Event Time Altitude Azimuth Distance (km) Brightness Sun altitude
Rises 17:59:50 0° 168° (SSE) 3,362 5.2 -10.2°
Reaches altitude 10° 18:02:10 10° 170° (S) 2,439 4.5 -10.6°
Maximum altitude 18:07:36 79° 256° (WSW) 860 2.4 -11.5°
Drops below altitude 10° 18:13:05 10° 344° (NNW) 2,456 4.9 -12.5°
Sets 18:15:28 0° 346° (NNW) 3,388 5.6 -12.9°
